Location: *
(58.7167°N, 26.1833°E)
Time: 22:19:17
(UTC+00:00)

Cosmos 2322 Rocket - Pass Details

Date: 25 August 2019
Orbit: 834 x 849 km, 71.0° (Epoch: 21 September)

Event Time Altitude Azimuth Distance (km) Brightness Sun altitude
Rises 19:02:42 0° 320° (NW) 3,409 7.5 -10.3°
Reaches altitude 10° 19:05:12 10° 324° (NW) 2,469 6.1 -10.6°
Maximum altitude 19:10:49 61° 45° (NE) 949 2.5 -11.1°
Enters shadow 19:15:29 15° 123° (ESE) 2,116 3.6 -11.5°
